[[{"header":{"parameterUnit":"m.s-1","parameterCategory":1,"la1":30.2992,"la2":30.254,"lo1":-89.0895,"lo2":-89.0443,"dy":0.0025,"dx":0.0025,"nx":19,"ny":19,"refTime":"2026-03-19T09:00:00:Z","depth":0,"parameterNumber":2,"parameterNumberName":"U-component_of_WINDS"},"data":[0,0,0,4.9984,4.999,5.0225,5.0226,5.0537,5.054,0,0,0,0,0,0,0,0,0,0,0,4.9923,4.9925,4.9984,4.999,5.0225,5.0226,5.0536,5.054,0,0,0,0,0,0,0,0,0,0,0,4.9922,4.9925,4.9928,4.9991,5.0225,5.0226,5.0535,5.0354,0,0,0,0,0,0,0,0,0,0,5.0123,5.0075,4.9924,4.9928,4.9992,5.0225,5.0226,5.0345,5.0365,5.0435,0,5.0501,0,5.0525,5.0561,5.0562,0,0,0,4.9984,5.0059,5.0115,4.9928,4.9995,5.0224,5.0117,5.0356,5.0379,5.0462,5.0505,5.0516,5.053,5.0563,5.0565,5.0988,5.099,0,0,4.9971,4.9969,5.0099,5.013,5.0097,5.011,5.0125,5.037,5.0416,5.0506,5.0523,5.0535,5.0565,5.0568,5.0986,5.0989,0,0,0,4.9938,4.9961,5.001,5.0118,5.0159,5.0117,5.0134,5.0406,5.0422,5.0527,5.0539,5.0567,5.0571,5.0984,5.0987,5.1096,0,0,0,4.9929,4.9941,5.0005,5.0007,5.0155,5.0286,5.0164,5.0405,5.0433,5.0538,5.0567,5.0574,5.0981,5.0985,5.1088,5.1147,0,0,0,4.9905,4.9938,4.9975,5.0006,5.0107,5.0282,5.0312,5.0411,5.0441,5.0563,5.0575,5.0979,5.0985,5.108,5.1135,5.1255,0,0,0,4.9877,5.0071,4.9977,5.0198,5.0105,5.0349,5.0311,5.0492,5.061,5.0569,5.0981,5.0987,5.1078,5.1128,5.1247,5.1354,5.14,0,0,5.0121,5.0101,5.023,5.0153,5.0412,5.0313,5.0588,5.0697,5.071,5.0894,5.0904,5.109,5.1134,5.1254,5.1659,5.1695,0,0,0,5.0307,5.0399,5.0469,5.058,5.0668,5.0747,5.0814,5.0854,5.1009,5.0805,5.1168,5.1194,5.1264,5.1315,5.1346,5.1403,5.1011,5.101,5.101,5.0649,5.0654,5.0867,5.0899,5.1008,5.1074,5.1161,5.1225,5.12,5.1285,5.1339,5.1585,5.1644,5.1667,5.1728,5.1399,5.1399,5.1399,5.14,5.1003,5.1133,5.1093,5.1285,5.1288,5.1449,5.1518,5.1494,5.1642,5.1545,5.1607,5.1499,5.1707,5.1759,5.1408,5.1407,5.1405,5.1405,5.1404,5.1225,5.1288,5.1333,5.1491,5.1613,5.1639,5.1782,5.178,5.178,5.1841,5.1895,5.1893,5.1888,5.1867,5.1868,5.1869,5.187,5.187,5.1871,5.1436,5.1483,5.1605,5.1711,5.178,5.1871,5.1936,5.2004,5.2077,5.2064,5.2065,5.2028,5.1728,5.165,5.1884,5.1882,5.188,5.1879,5.1878,5.1789,5.1708,5.1895,5.1965,5.2087,5.2205,5.2201,5.2337,5.2392,5.2462,5.2412,5.2191,5.217,5.2145,5.2081,5.2413,5.2413,5.2413,5.2413,5.1973,5.1963,5.2151,5.2261,5.2368,5.2382,5.2589,5.264,5.268,5.2713,5.2666,5.2581,5.2556,5.2549,5.2516,5.2456,5.2876,5.2876,5.2877,5.2188,5.2187,5.2365,5.2403,5.2498,5.2578,5.2771,5.2896,5.2925,5.2895,5.2738,5.2719,5.2582,5.2538,5.2503,5.2452,5.2341,0,0]},{"header":{"parameterUnit":"m.s-1","parameterCategory":1,"la1":30.2992,"la2":30.254,"lo1":-89.0895,"lo2":-89.0443,"dy":0.0025,"dx":0.0025,"nx":19,"ny":19,"refTime":"2026-03-19T09:00:00:Z","depth":0,"parameterNumber":3,"parameterNumberName":"V-component_of_WINDS"},"data":[0,0,0,3.4813,3.4817,3.4997,3.4998,3.5219,3.5221,0,0,0,0,0,0,0,0,0,0,0,3.4757,3.4759,3.4813,3.4817,3.4997,3.4998,3.5219,3.5221,0,0,0,0,0,0,0,0,0,0,0,3.4757,3.4758,3.476,3.4818,3.4997,3.4998,3.5218,3.5085,0,0,0,0,0,0,0,0,0,0,3.4911,3.4859,3.4758,3.476,3.4819,3.4997,3.4998,3.5079,3.5093,3.5134,0,3.5174,0,3.5201,3.5236,3.5236,0,0,0,3.4818,3.4846,3.4897,3.4761,3.4821,3.4997,3.4916,3.5087,3.5103,3.5154,3.5177,3.5185,3.5205,3.5237,3.5238,3.5478,3.5479,0,0,3.4808,3.4788,3.4886,3.4908,3.4883,3.4911,3.4922,3.5097,3.512,3.5178,3.519,3.5208,3.5238,3.524,3.5477,3.5479,0,0,0,3.4779,3.4781,3.4828,3.4899,3.4932,3.4916,3.4929,3.5112,3.5129,3.5193,3.5211,3.524,3.5242,3.5476,3.5478,3.5512,0,0,0,3.4773,3.4764,3.4823,3.4813,3.4929,3.5025,3.494,3.5117,3.5137,3.521,3.524,3.5244,3.5475,3.5477,3.5509,3.5531,0,0,0,3.4746,3.4761,3.4787,3.4811,3.4889,3.5023,3.505,3.5122,3.5148,3.5237,3.5245,3.5474,3.5477,3.5506,3.5526,3.5588,0,0,0,3.4711,3.4814,3.4787,3.4908,3.4887,3.5043,3.5049,3.5166,3.5246,3.5241,3.5475,3.5478,3.5505,3.5523,3.5584,3.5635,3.5655,0,0,3.483,3.4828,3.4901,3.4881,3.5038,3.5017,3.5178,3.5269,3.5294,3.5414,3.5421,3.551,3.5526,3.5587,3.5774,3.579,0,0,0,3.4931,3.4983,3.5029,3.5105,3.5179,3.5242,3.5311,3.5344,3.5447,3.5353,3.5549,3.556,3.5596,3.5621,3.5635,3.5666,3.5489,3.5489,3.5488,3.507,3.5098,3.522,3.5269,3.5342,3.5411,3.5472,3.5528,3.5535,3.558,3.5616,3.5727,3.5755,3.5766,3.5798,3.5646,3.5646,3.5646,3.5646,3.5245,3.5323,3.5328,3.5448,3.5476,3.5575,3.5644,3.5645,3.574,3.5702,3.5736,3.5692,3.5782,3.5812,3.5649,3.5648,3.5648,3.5648,3.5648,3.5339,3.5381,3.542,3.5532,3.5613,3.5658,3.5748,3.577,3.579,3.5824,3.5862,3.5862,3.5863,3.5841,3.5841,3.5841,3.5842,3.5842,3.5842,3.542,3.5464,3.5539,3.5624,3.5674,3.5742,3.5811,3.586,3.5919,3.5927,3.5927,3.5927,3.5786,3.575,3.5848,3.5847,3.5846,3.5846,3.5845,3.5587,3.5552,3.5668,3.5719,3.5818,3.5896,3.5922,3.6019,3.6062,3.6105,3.6098,3.5991,3.5989,3.5979,3.5949,3.6093,3.6093,3.6093,3.6093,3.5665,3.5667,3.5789,3.5868,3.5947,3.5981,3.6107,3.616,3.6208,3.6236,3.6218,3.6179,3.6168,3.6174,3.6159,3.6131,3.6318,3.6319,3.6319,3.5768,3.5778,3.5883,3.5932,3.6011,3.6076,3.6195,3.6281,3.6329,3.6328,3.6257,3.6247,3.6186,3.6165,3.6164,3.6141,3.609,0,0]}]]